Погода в Саракташе

Россия / Оренбургская область     51°46′59″N   56°21′54″E
темп.,
°C
ветер,
м/с
пор.,
м/с
влажн.,
%
обл.,
%
осадки,
мм/ч
давл.,
гПа
погр.,
м
25 мая, ср
ср2523:00+13ссв3495100 2.7 100189
02:00+12сз349848 0.4 1002142
05:00+11ссз5897100 0.6 1003330
08:00+10зсз71195100 2.4 1005487
11:00+11зсз4788100 3.8 1009631
14:00+16зсз5663100 0.4 10091520
17:00+17з56487 0.5 10102095
20:00+15юз34669 0.0 101186
26 мая, чт
чт2623:00+12з5107319 0.0 1012318
02:00+8сз38950 0.0 1014204
05:00+6сз239322 0.0 101573
08:00+8сз57775 0.0 1015668
11:00+11сз676016 0.0 10151433
14:00+14сз66497 0.0 10151691
17:00+15сз564832 0.0 10161908
20:00+13зсз356718 0.0 1016107
27 мая, пт
пт2723:00+9з347531 0.0 101754
02:00+7з227536 0.0 101721
05:00+6ююз227591 0.0 101710
08:00+10ю346992 0.0 1017235
11:00+15ююз565350 0.0 10161570
14:00+17юз5652100 0.0 10151979
17:00+16ю3667100 0.1 1015241
20:00+14ююв3676100 0.1 1014128
28 мая, сб
сб2823:00+12ююз2490100 0.6 1014147
02:00+12ю5109083 1.3 1013473
05:00+11ю4109599 1.9 1012387
08:00+12ююз499697 1.5 1013519
11:00+16ююз347765 1.9 1013903
14:00+16зюз667268 0.8 10151006
17:00+17з4563100 0.8 10161416
20:00+16з228116 0.1 101858
29 мая, вс
вс2923:00+12ююв22845 0.1 101911
02:00+11ю22880 0.0 102015
05:00+10ю22855 0.0 102114
08:00+15ю23725 0.0 1022199
11:00+20ююз34595 0.0 1022929
14:00+22юз34515 0.0 10221522
17:00+23юз35505 0.0 10221693
20:00+21ююз22665 0.0 102214